Regional Weather Roundup
Issued by NWS Newport/Morehead, NC

Current Version | Previous Version | Text Only | Print | Product List | Glossary Off
Versions: 1 2 3 4 5 6 7 8 9 10 11 12 13 14 15 16 17 18 19 20 21 22 23 24 25 26 27 28 29 30 31 32 33 34 35 36 37 38 39 40 41 42 43 44 45 46 47 48 49 50
229 ASUS42 KMHX 240813 RWRMHX WEATHER ROUNDUP FOR EASTERN NORTH CAROLINA NATIONAL WEATHER SERVICE NEWPORT/MOREHEAD CITY NC 400 AM EDT SUN JUL 24 2016 NOTE: "FAIR" INDICATES FEW OR NO CLOUDS BELOW 12,000 FEET WITH NO SIGNIFICANT WEATHER AND/OR OBSTRUCTIONS TO VISIBILITY NCZ015>017-031-032-045>047-102-103-240900- NORTH COAST CITY SKY/WX TMP DP RH WIND PRES REMARKS EDENTON CLOUDY 80 74 82 SW10 30.00S ELIZABETH CITY CLOUDY 78 74 87 S8 29.98F KITTY HAWK CLOUDY 80 74 84 SW7 29.98F MANTEO N/A 79 78 95 W10 30.00S $$ NCZ045>047-081-094-103-104-240900- CENTRAL COAST CITY SKY/WX TMP DP RH WIND PRES REMARKS FRISCO PTCLDY 80 76 87 W7 30.02R $$ NCZ095-097-098-100-101-240900- SOUTHERN COAST CITY SKY/WX TMP DP RH WIND PRES REMARKS BEAUFORT PTCLDY 82 75 79 SW10 30.01F CEDAR ISLAND NOT AVBL JACKSONVILLE CLEAR 77 74 90 CALM 30.01S PINEY ISLAND SUNNY N/A N/A N/A SW5 30.01 WILMINGTON MOCLDY 78 76 93 S3 30.01F $$ NCZ011>013-027>030-043-044-078>080-089-090>093-098-240900- COASTAL PLAIN CITY SKY/WX TMP DP RH WIND PRES REMARKS AHOSKIE PTCLDY 74 73 96 CALM 29.98F CLINTON CLEAR 73 72 99 CALM 30.01F ELIZABETHTOWN CLEAR 77 76 99 CALM 30.00F GOLDSBORO CLEAR 74 74 100 SE2 29.99S GREENVILLE CLEAR 77 73 88 SW5 30.02S HAVELOCK CLEAR 76 74 93 CALM 30.02F KENANSVILLE NOT AVBL KINSTON CLEAR 73 71 95 CALM 30.01F NEW BERN PTCLDY 76 74 93 SW3 30.03S RICHLANDS CLEAR 72 71 97 CALM 30.02S FOG ROCKY MOUNT CLEAR 75 73 93 CALM 30.00S WASHINGTON CLEAR 75 71 86 SW6 30.01S WHITEVILLE CLEAR 76 74 94 CALM 30.00F $$ AMZ130-135-150-152-154-156-158-170-250-252-270-ANZ085-086-088-633-658-670-240900- MARINE OBSERVATIONS STATION/POSITION TIME TEMP WIND PRES WAVE SWELL AIR SEA DIR/SP/G HT/PER HT/PER (UTC) (F) (DEG/KT/KT) (MB) (FT/S) (FT/S) CHESAPEAKE LIGHT NOT AVBL 64 E VA BEACH 0750 81 80 240/ 14/ 17 1014.5 3/ 5 2/ 8 DUCK 0700 81 60 230/ 12/ 15 1014.9 2 E DUCK 0711 69 N/A 1/ 8 OREGON INLET 0700 83 85 230/ 15/ 17 1015.7 13E OREGON INLT 0800 83 N/A 2/ 9 2/ 9 HATTERAS CG 0700 81 83 220/ 6/ 9 1015.9 DIAMOND BUOY 0750 84 85 230/ 14/ 17 1016.2 3/ 4 2/ 9 CAPE LOOKOUT 0700 82 230/ 6/ 8 1016.4 BEAUFORT LAB 0700 83 83 220/ 5/ 8 1016.0 30 SE NEW RVR IN 0708 84 85 220/ 12/ 16 1016.5 30 SE NEW RVR IN 0725 85 N/A 3/ 8 27 SE WRIGHTSVLE 0708 84 85 230/ 12/ 14 1016.8 5 SE WRIGHTSVLE 0708 83 83 240/ 8/ 10 1017.3 225 S CAPE HAT 0750 82 84 290/ 2/ 2 1016.9 2/ 8 2/ 8 41 SE CHARLESTON 0750 85 86 220/ 14/ 14 1015.9 3/ 8 2/ 8 $$

USA.gov is the U.S. government's official web portal to all federal, state and local government web resources and services.